Bad Axe, MI

9:36 AM EDT on September 23, 2017 (GMT -0400)
Huron County Memorial

Weather History for KBAX - September, 2013

Change the Weather History Date:

Wednesday, September 4, 2013

  Actual Average (KP58) Record (KP58)
Temperature  
Mean Temperature 64 °F -  
Max Temperature 76 °F 74 °F 88 °F (2000)
Min Temperature 51 °F 58 °F 53 °F (2010)
Degree Days  
Heating Degree Days 2    
Growing Degree Days 14 (Base 50)    
Moisture  
Dew Point 57 °F    
Average Humidity 82    
Maximum Humidity 96    
Minimum Humidity 58    
Precipitation  
Precipitation 0.00 in - - ()
Sea Level Pressure  
Sea Level Pressure 30.03 in    
Wind  
Wind Speed 5 mph (West)    
Max Wind Speed 12 mph    
Max Gust Speed 20 mph    
Visibility 10 miles    
Events      
Averages and records for this station are not official NWS values.
T = Trace of Precipitation, MM = Missing Value Source: NWS Daily Summary

Daily Weather History Graph

Daily Weather History Graph

Search for Another Location

Airport or City:

Trip Planner

Search our weather history database for the weather conditions in past years. The results will help you decide how hot, cold, wet, or windy it might be!

Date:

Astronomy

Sep. 04, 2013 Rise Set
Actual Time 6:59 AM EDT 8:01 PM EDT
Civil Twilight 6:29 AM EDT 8:31 PM EDT
Nautical Twilight 5:54 AM EDT 9:06 PM EDT
Astronomical Twilight 5:17 AM EDT 9:42 PM EDT
Moon 6:10 AM EDT (9/4) 7:19 PM EDT (9/4)
Length of Visible Light 14h 01m
Length of Day
13h 02m
Waning Crescent, 1% of the Moon is Illuminated
Sep 4
Waning Crescent
Sep 5
New
Sep 12
First Quarter
Sep 19
Full
Sep 26
Last Quarter

Hourly Weather History & Observations

Time (EDT) Temp. Dew Point Humidity Pressure Visibility Wind Dir Wind Speed Gust Speed Precip Events Conditions
12:12 AM 53.6 °F 49.5 °F 86% 29.99 in 10.0 mi WSW 3.5 mph - N/A   Clear
12:33 AM 53.8 °F 50.7 °F 89% 29.99 in 10.0 mi WSW 3.5 mph - N/A   Clear
12:52 AM 54.5 °F 51.6 °F 90% 29.99 in 10.0 mi Calm Calm - N/A   Clear
1:12 AM 53.6 °F 50.4 °F 89% 30.00 in 10.0 mi Calm Calm - N/A   Clear
1:33 AM 53.2 °F 50.7 °F 91% 29.99 in 10.0 mi WSW 3.5 mph - N/A   Clear
1:52 AM 52.9 °F 50.7 °F 92% 29.99 in 10.0 mi Calm Calm - N/A   Clear
2:12 AM 52.7 °F 50.4 °F 92% 29.99 in 10.0 mi SSW 4.6 mph - N/A   Clear
2:32 AM 52.5 °F 50.4 °F 92% 29.99 in 10.0 mi SSW 4.6 mph - N/A   Clear
2:52 AM 51.3 °F 49.3 °F 93% 29.99 in 10.0 mi Calm Calm - N/A   Clear
3:12 AM 51.4 °F 49.6 °F 94% 29.99 in 10.0 mi Calm Calm - N/A   Clear
3:32 AM 54.7 °F 52.7 °F 93% 29.99 in 10.0 mi WSW 5.8 mph - N/A   Clear
3:52 AM 55.4 °F 52.7 °F 91% 30.00 in 10.0 mi WSW 4.6 mph - N/A   Clear
4:12 AM 54.3 °F 51.3 °F 89% 29.99 in 10.0 mi SSW 3.5 mph - N/A   Clear
4:32 AM 52.9 °F 51.1 °F 94% 29.99 in 10.0 mi SSW 3.5 mph - N/A   Clear
4:52 AM 54.3 °F 52.5 °F 94% 30.00 in 10.0 mi WSW 3.5 mph - N/A   Clear
5:12 AM 54.9 °F 52.9 °F 93% 30.00 in 10.0 mi SW 4.6 mph - N/A   Clear
5:32 AM 55.2 °F 52.9 °F 92% 30.00 in 10.0 mi SW 4.6 mph - N/A   Clear
5:52 AM 55.0 °F 52.9 °F 92% 30.00 in 10.0 mi SW 4.6 mph - N/A   Clear
6:13 AM 54.7 °F 52.9 °F 94% 30.00 in 10.0 mi SSW 5.8 mph - N/A   Clear
6:32 AM 53.8 °F 52.2 °F 94% 30.00 in 10.0 mi SSW 4.6 mph - N/A   Clear
6:52 AM 54.7 °F 53.6 °F 96% 30.00 in 10.0 mi SW 4.6 mph - N/A   Clear
7:13 AM 55.6 °F 54.5 °F 96% 30.00 in 10.0 mi SW 6.9 mph - N/A   Clear
7:32 AM 56.7 °F 55.6 °F 96% 30.01 in 10.0 mi SW 5.8 mph - N/A   Clear
7:52 AM 58.3 °F 57.0 °F 96% 30.01 in 10.0 mi WSW 9.2 mph - N/A   Clear
8:13 AM 59.2 °F 57.2 °F 93% 30.01 in 10.0 mi SW 8.1 mph - N/A   Clear
8:32 AM 60.4 °F 57.7 °F 91% 30.01 in 10.0 mi WSW 9.2 mph - N/A   Clear
8:52 AM 61.3 °F 58.1 °F 89% 30.01 in 10.0 mi WSW 9.2 mph - N/A   Clear
9:13 AM 62.8 °F 58.1 °F 85% 30.03 in 10.0 mi WSW 8.1 mph - N/A   Clear
9:32 AM 63.7 °F 58.6 °F 84% 30.03 in 10.0 mi West 10.4 mph - N/A   Clear
9:52 AM 65.3 °F 59.0 °F 80% 30.03 in 10.0 mi West 10.4 mph - N/A   Clear
10:12 AM 66.7 °F 59.2 °F 77% 30.03 in 10.0 mi West 11.5 mph 18.4 mph N/A   Clear
10:32 AM 68.4 °F 59.0 °F 72% 30.03 in 10.0 mi West 11.5 mph 16.1 mph N/A   Clear
10:53 AM 69.8 °F 59.4 °F 69% 30.03 in 10.0 mi West 10.4 mph - N/A   Clear
11:12 AM 71.8 °F 59.5 °F 65% 30.03 in 10.0 mi West 10.4 mph 19.6 mph N/A   Clear
11:32 AM 72.0 °F 59.2 °F 64% 30.03 in 10.0 mi West 11.5 mph - N/A   Clear
11:53 AM 72.9 °F 59.7 °F 63% 30.02 in 10.0 mi West 10.4 mph 16.1 mph N/A   Scattered Clouds
12:12 PM 73.6 °F 60.3 °F 63% 30.03 in 10.0 mi West 9.2 mph - N/A   Scattered Clouds
12:33 PM 74.1 °F 59.5 °F 60% 30.03 in 10.0 mi West 8.1 mph - N/A   Scattered Clouds
12:52 PM 74.8 °F 60.4 °F 61% 30.03 in 10.0 mi West 10.4 mph - N/A   Scattered Clouds
1:12 PM 75.2 °F 59.9 °F 59% 30.02 in 10.0 mi NW 9.2 mph - N/A   Clear
1:33 PM 75.6 °F 60.1 °F 59% 30.03 in 10.0 mi WNW 10.4 mph - N/A   Scattered Clouds
1:52 PM 76.5 °F 60.4 °F 58% 30.02 in 10.0 mi WNW 9.2 mph 16.1 mph N/A   Mostly Cloudy
2:12 PM 75.6 °F 60.6 °F 60% 30.03 in 10.0 mi WNW 8.1 mph - N/A   Overcast
2:33 PM 74.7 °F 60.3 °F 61% 30.02 in 10.0 mi NNW 9.2 mph - N/A   Overcast
2:52 PM 75.2 °F 60.4 °F 60% 30.02 in 10.0 mi West 6.9 mph - N/A   Overcast
3:12 PM 75.6 °F 60.6 °F 60% 30.02 in 10.0 mi NNW 10.4 mph - N/A   Overcast
3:33 PM 71.8 °F 61.0 °F 69% 30.03 in 10.0 mi North 8.1 mph - N/A   Overcast
3:52 PM 69.8 °F 61.7 °F 75% 30.03 in 10.0 mi North 11.5 mph 18.4 mph N/A   Overcast
4:12 PM 68.9 °F 61.2 °F 76% 30.03 in 10.0 mi NNE 10.4 mph 16.1 mph N/A   Mostly Cloudy
4:33 PM 67.1 °F 60.8 °F 80% 30.03 in 10.0 mi NNE 6.9 mph 16.1 mph N/A   Overcast
4:52 PM 67.1 °F 61.0 °F 81% 30.02 in 10.0 mi NE 6.9 mph - N/A   Mostly Cloudy
5:12 PM 67.1 °F 60.4 °F 79% 30.03 in 10.0 mi NNE 8.1 mph - N/A   Overcast
5:33 PM 66.7 °F 60.8 °F 81% 30.03 in 10.0 mi NNE 10.4 mph - N/A   Overcast
5:52 PM 66.0 °F 60.3 °F 82% 30.04 in 10.0 mi NNE 6.9 mph - N/A   Overcast
6:13 PM 65.7 °F 59.7 °F 81% 30.04 in 10.0 mi North 6.9 mph - N/A   Overcast
6:33 PM 65.3 °F 59.0 °F 80% 30.04 in 10.0 mi NNE 10.4 mph 16.1 mph N/A   Overcast
6:52 PM 64.4 °F 58.3 °F 80% 30.05 in 10.0 mi NNE 8.1 mph - N/A   Overcast
7:13 PM 63.7 °F 57.9 °F 81% 30.05 in 10.0 mi NNE 6.9 mph - N/A   Overcast
7:33 PM 63.3 °F 57.7 °F 82% 30.05 in 10.0 mi NNE 5.8 mph - N/A   Overcast
7:52 PM 63.1 °F 58.1 °F 84% 30.05 in 10.0 mi NE 4.6 mph - N/A   Overcast
8:13 PM 62.8 °F 57.9 °F 84% 30.06 in 10.0 mi Calm Calm - N/A   Overcast
8:33 PM 62.1 °F 57.7 °F 86% 30.07 in 10.0 mi NE 3.5 mph - N/A   Overcast
8:52 PM 62.1 °F 57.6 °F 85% 30.07 in 10.0 mi NE 3.5 mph - N/A   Overcast
9:13 PM 61.5 °F 57.2 °F 86% 30.08 in 10.0 mi NNE 3.5 mph - N/A   Overcast
9:33 PM 60.6 °F 56.8 °F 87% 30.09 in 10.0 mi Calm Calm - N/A   Scattered Clouds
9:52 PM 59.9 °F 56.7 °F 89% 30.09 in 10.0 mi Calm Calm - N/A   Clear
10:13 PM 59.0 °F 56.1 °F 90% 30.09 in 10.0 mi Calm Calm - N/A   Clear
10:33 PM 58.1 °F 55.8 °F 92% 30.10 in 10.0 mi Calm Calm - N/A   Mostly Cloudy
10:52 PM 59.2 °F 57.2 °F 93% 30.11 in 10.0 mi Calm Calm - N/A   Overcast
11:13 PM 58.1 °F 55.6 °F 91% 30.11 in 10.0 mi Calm Calm - N/A   Mostly Cloudy
11:32 PM 57.6 °F 55.2 °F 92% 30.11 in 10.0 mi Calm Calm - N/A   Mostly Cloudy
11:52 PM 55.4 °F 53.2 °F 92% 30.12 in 10.0 mi Calm Calm - N/A   Scattered Clouds